Weather History for Boonville, MO

Change the Weather History Date:

Wednesday, January 1, 2014

  Actual Average Record
Temperature  
Mean Temperature 25 °F -  
Max Temperature 36 °F 34 °F 72 °F (1952)
Min Temperature 14 °F 18 °F -14 °F (1974)
Degree Days  
Heating Degree Days 40    
Moisture  
Dew Point 19 °F    
Average Humidity 73    
Maximum Humidity 87    
Minimum Humidity 56    
Precipitation  
Precipitation 0.00 in - - ()
Sea Level Pressure  
Sea Level Pressure 30.10 in    
Wind  
Wind Speed 7 mph (NNE)    
Max Wind Speed 15 mph    
Max Gust Speed 21 mph    
Visibility 8 miles    
Events Snow    
Averages and records for this station are not official NWS values.
T = Trace of Precipitation, MM = Missing Value Source: NWS Daily Summary

Daily Weather History Graph

Daily Weather History Graph

Search for Another Location

Airport:

Trip Planner

Search our weather history database for the weather conditions in past years. The results will help you decide how hot, cold, wet, or windy it might be!

Date:

Astronomy

Jan. 01, 2014 Rise Set
Actual Time 7:29 AM CST 4:59 PM CST
Civil Twilight 6:59 AM CST 5:29 PM CST
Nautical Twilight 6:26 AM CST 6:02 PM CST
Astronomical Twilight 5:53 AM CST 6:35 PM CST
Moon 7:20 AM CST (1/1) 5:44 PM CST (1/1)
Length of Visible Light 10h 29m
Length of Day
9h 29m
New Moon, 0% of the Moon is Illuminated
Jan 1
New Moon
Jan 7
First Quarter
Jan 15
Full
Jan 23
Last Quarter
Jan 30
New

Hourly Weather History & Observations

Time (CST) Temp. Windchill Dew Point Humidity Pressure Visibility Wind Dir Wind Speed Gust Speed Precip Events Conditions
12:15 AM 34.5 °F 30.4 °F 22.3 °F 61% 30.11 in 10.0 mi South 4.6 mph - N/A   Clear
12:35 AM 36.1 °F 31.4 °F 21.9 °F 56% 30.10 in 10.0 mi South 5.8 mph - N/A   Clear
12:55 AM 36.7 °F 31.2 °F 22.1 °F 56% 30.10 in 10.0 mi South 6.9 mph - N/A   Clear
1:15 AM 36.0 °F 31.1 °F 21.9 °F 57% 30.10 in 10.0 mi South 5.8 mph - N/A   Clear
1:35 AM 34.2 °F 28.2 °F 21.7 °F 60% 30.10 in 10.0 mi SSE 6.9 mph - N/A   Clear
1:55 AM 32.7 °F 26.4 °F 21.7 °F 64% 30.09 in 10.0 mi SSE 6.9 mph - N/A   Clear
2:15 AM 32.0 °F 25.6 °F 21.9 °F 66% 30.09 in 10.0 mi SSE 6.9 mph - N/A   Clear
2:35 AM 32.0 °F - 21.7 °F 66% 30.09 in 10.0 mi Calm Calm - N/A   Clear
2:55 AM 32.9 °F - 21.7 °F 64% 30.10 in 10.0 mi Calm Calm - N/A   Clear
3:15 AM 33.3 °F - 21.6 °F 62% 30.10 in 10.0 mi Calm Calm - N/A   Clear
3:35 AM 32.7 °F - 21.6 °F 64% 30.09 in 10.0 mi Calm Calm - N/A   Clear
3:55 AM 33.3 °F 30.2 °F 21.6 °F 62% 30.09 in 10.0 mi SE 3.5 mph - N/A   Clear
4:15 AM 31.8 °F 25.4 °F 21.6 °F 66% 30.08 in 10.0 mi SE 6.9 mph - N/A   Clear
4:35 AM 30.2 °F 24.3 °F 21.7 °F 71% 30.08 in 10.0 mi SE 5.8 mph - N/A   Clear
4:55 AM 29.3 °F 24.3 °F 21.4 °F 72% 30.08 in 10.0 mi SE 4.6 mph - N/A   Clear
5:15 AM 29.8 °F 24.9 °F 21.6 °F 71% 30.08 in 10.0 mi SE 4.6 mph - N/A   Clear
5:35 AM 30.0 °F 25.2 °F 21.6 °F 71% 30.07 in 10.0 mi SE 4.6 mph - N/A   Clear
5:55 AM 30.6 °F 24.7 °F 21.6 °F 69% 30.07 in 10.0 mi SE 5.8 mph - N/A   Clear
6:15 AM 29.1 °F 24.1 °F 21.4 °F 73% 30.07 in 10.0 mi SE 4.6 mph - N/A   Clear
6:35 AM 29.1 °F 23.0 °F 21.2 °F 72% 30.07 in 10.0 mi SE 5.8 mph - N/A   Clear
6:55 AM 28.4 °F 24.6 °F 21.2 °F 74% 30.07 in 10.0 mi SE 3.5 mph - N/A   Clear
7:15 AM 29.5 °F 24.5 °F 21.4 °F 72% 30.07 in 10.0 mi SE 4.6 mph - N/A   Clear
7:35 AM 28.8 °F 25.0 °F 21.2 °F 73% 30.08 in 10.0 mi SE 3.5 mph - N/A   Clear
7:55 AM 28.2 °F 23.1 °F 21.2 °F 75% 30.09 in 10.0 mi SSE 4.6 mph - N/A   Clear
8:15 AM 28.0 °F 24.2 °F 22.1 °F 78% 30.10 in 10.0 mi SSE 3.5 mph - N/A   Clear
8:35 AM 29.8 °F 24.9 °F 23.4 °F 77% 30.10 in 10.0 mi SSE 4.6 mph - N/A   Clear
8:55 AM 31.8 °F 28.5 °F 24.3 °F 74% 30.10 in 10.0 mi SSE 3.5 mph - N/A   Clear
9:15 AM 33.6 °F 29.4 °F 24.6 °F 70% 30.10 in 10.0 mi SSE 4.6 mph - N/A   Clear
9:35 AM 34.5 °F - 25.0 °F 68% 30.11 in 10.0 mi Calm Calm - N/A   Clear
9:55 AM 34.5 °F 28.6 °F 25.9 °F 71% 30.11 in 10.0 mi North 6.9 mph - N/A   Clear
10:15 AM 33.4 °F 28.1 °F 25.5 °F 73% 30.10 in 10.0 mi North 5.8 mph - N/A   Clear
10:35 AM 32.5 °F 24.8 °F 25.0 °F 74% 30.11 in 10.0 mi North 9.2 mph - N/A   Clear
10:55 AM 31.5 °F 22.9 °F 23.5 °F 73% 30.11 in 10.0 mi North 10.4 mph - N/A   Clear
11:15 AM 30.4 °F 21.5 °F 23.0 °F 74% 30.10 in 10.0 mi North 10.4 mph - N/A   Clear
11:35 AM 30.0 °F 21.7 °F 22.5 °F 73% 30.09 in 10.0 mi North 9.2 mph - N/A   Clear
11:55 AM 29.7 °F 22.8 °F 21.7 °F 72% 30.08 in 10.0 mi North 6.9 mph - N/A   Clear
12:15 PM 29.8 °F 20.9 °F 21.7 °F 72% 30.07 in 10.0 mi North 10.4 mph - N/A   Scattered Clouds
12:35 PM 30.0 °F 21.1 °F 21.7 °F 71% 30.06 in 10.0 mi NNE 10.4 mph - N/A   Mostly Cloudy
12:55 PM 30.0 °F 21.7 °F 21.6 °F 71% 30.06 in 10.0 mi North 9.2 mph - N/A   Scattered Clouds
1:15 PM 29.7 °F 21.3 °F 21.2 °F 71% 30.05 in 10.0 mi North 9.2 mph - N/A   Clear
1:35 PM 29.7 °F 20.1 °F 21.0 °F 70% 30.05 in 10.0 mi North 11.5 mph - N/A   Clear
1:55 PM 29.1 °F 20.6 °F 20.7 °F 71% 30.04 in 10.0 mi NNE 9.2 mph - N/A   Scattered Clouds
2:15 PM 29.1 °F 20.0 °F 20.7 °F 71% 30.04 in 10.0 mi NNE 10.4 mph - N/A   Mostly Cloudy
2:35 PM 28.8 °F 19.0 °F 20.5 °F 71% 30.04 in 10.0 mi North 11.5 mph - N/A   Overcast
2:55 PM 28.2 °F 17.7 °F 20.3 °F 72% 30.04 in 10.0 mi North 12.7 mph - N/A   Mostly Cloudy
3:15 PM 27.7 °F 17.1 °F 19.9 °F 73% 30.04 in 10.0 mi North 12.7 mph - N/A   Clear
3:35 PM 27.3 °F 16.1 °F 19.8 °F 73% 30.05 in 10.0 mi North 13.8 mph 17.3 mph N/A   Scattered Clouds
3:55 PM 27.0 °F 15.6 °F 19.4 °F 73% 30.06 in 10.0 mi North 13.8 mph - N/A   Mostly Cloudy
4:15 PM 26.4 °F 14.5 °F 19.0 °F 74% 30.05 in 10.0 mi North 15.0 mph 19.6 mph N/A   Overcast
4:35 PM 25.9 °F 13.8 °F 18.5 °F 74% 30.06 in 10.0 mi North 15.0 mph - N/A   Overcast
4:55 PM 25.3 °F 13.6 °F 18.1 °F 74% 30.07 in 10.0 mi North 13.8 mph 20.7 mph N/A   Overcast
5:15 PM 24.8 °F 14.6 °F 17.4 °F 74% 30.09 in 10.0 mi North 10.4 mph 20.7 mph N/A   Overcast
5:35 PM 24.1 °F 13.1 °F 16.7 °F 73% 30.10 in 10.0 mi North 11.5 mph 18.4 mph N/A   Overcast
5:55 PM 23.4 °F 11.1 °F 16.0 °F 73% 30.12 in 10.0 mi North 13.8 mph - N/A   Overcast
6:15 PM 23.2 °F 12.0 °F 15.6 °F 73% 30.14 in 10.0 mi North 11.5 mph - N/A   Overcast
6:35 PM 22.5 °F 11.1 °F 15.1 °F 73% 30.15 in 10.0 mi NNW 11.5 mph 16.1 mph N/A   Overcast
6:55 PM 21.6 °F 9.9 °F 15.3 °F 77% 30.14 in 3.0 mi North 11.5 mph - N/A Snow Light Snow
7:15 PM 20.7 °F 7.1 °F 16.0 °F 82% 30.15 in 2.5 mi North 15.0 mph 18.4 mph N/A Snow Light Snow
7:35 PM 19.9 °F 7.9 °F 15.8 °F 84% 30.16 in 2.0 mi North 11.5 mph - N/A Snow Light Snow
7:55 PM 18.9 °F 5.3 °F 15.1 °F 85% 30.16 in 0.8 mi North 13.8 mph - N/A Snow Snow
8:15 PM 18.0 °F 4.8 °F 14.7 °F 87% 30.16 in 0.8 mi North 12.7 mph 20.7 mph N/A Snow Snow
8:35 PM 17.2 °F 3.9 °F 14.0 °F 87% 30.16 in 1.2 mi North 12.7 mph 16.1 mph N/A Snow Light Snow
8:55 PM 16.9 °F 3.4 °F 13.5 °F 86% 30.17 in 2.0 mi North 12.7 mph 19.6 mph N/A Snow Light Snow
9:15 PM 16.2 °F 4.7 °F 12.6 °F 86% 30.18 in 2.0 mi NNW 9.2 mph - N/A Snow Light Snow
9:35 PM 15.8 °F 4.2 °F 12.2 °F 86% 30.18 in 2.5 mi NNW 9.2 mph - N/A Snow Light Snow
9:55 PM 15.6 °F 2.5 °F 11.8 °F 85% 30.18 in 2.5 mi NNW 11.5 mph 17.3 mph N/A Snow Light Snow
10:15 PM 15.4 °F 2.3 °F 11.7 °F 85% 30.19 in 2.5 mi NNW 11.5 mph - N/A Snow Light Snow
10:35 PM 15.4 °F 3.0 °F 11.5 °F 84% 30.20 in 2.5 mi NNW 10.4 mph - N/A Snow Light Snow
10:55 PM 15.3 °F 3.5 °F 11.3 °F 84% 30.20 in 1.8 mi NNW 9.2 mph 16.1 mph N/A Snow Light Snow
11:15 PM 15.1 °F 1.1 °F 11.3 °F 85% 30.20 in 2.0 mi NNW 12.7 mph - N/A Snow Light Snow
11:35 PM 14.9 °F 0.9 °F 11.1 °F 85% 30.21 in 1.8 mi NNW 12.7 mph 16.1 mph N/A Snow Light Snow
11:55 PM 14.9 °F 4.0 °F 10.9 °F 84% 30.21 in 2.5 mi NNW 8.1 mph - N/A Snow Light Snow